ORBCOMM FM110 [+] (41182 NORAD) Tracking and Keplerian Element Data

This shows tracking and keplerian element data for the satellite.

Feedback or suggestion? Click here.




ElementValue
Catalog41182
NameORBCOMM FM110 [+]
Epoch Orbit15391
Epoch Day318.47421512
Epoch Year2018
RAAN85.1146
Inclination47.002
Eccentricity0.0001326
Argument of Perigee302.2232
Mean Anonmoly57.8524
Mean Motion14.54746819
Decay Rate-1.06E-06
L11 41182U 15081D 18318.47421512 -.00000106 00000-0 13663-4 0 9999
L22 41182 47.0020 85.1146 0001326 302.2232 57.8524 14.54746819153911

Live tracking and technical data element details for ORBCOMM FM110 [+] (NORAD 41182). ORBCOMM FM110 [+] can be tracked NOW for your location showing map with azimuth and elevation plus other details from your city location.

Track the satellite on the map from your city or location and see movement details for azimuth, elevation, latitude, longitude, range, height, and movement on the map or in text.







IsCatalogInMostPopularTable: catalog: 41182, numindb: 113
Update: records affected: 1



GetName: 41182 ORBCOMM FM110 [+]

Hit Count: updated at: Fri, 16 Nov 2018 03:43:20 GMT